Time,TemperatureF,DewpointF,PressureIn,WindDirection,WindDirectionDegrees,WindSpeedMPH,WindSpeedGustMPH,Humidity,HourlyPrecipIn,Conditions,Clouds,dailyrainin,SolarRadiationWatts/m^2,SoftwareType,DateUTC
2013-07-14 00:00:00,68.0,33.0,-100.00,WNW,287,4.0,11.0,27,0.00,,,0.00,0.000000,,2013-07-14 07:00:00,
2013-07-14 00:33:00,68.0,33.0,-100.00,WNW,287,4.0,11.0,27,0.00,,,0.00,0.000000,,2013-07-14 07:33:00,
2013-07-14 00:43:00,68.0,33.0,-100.00,WNW,287,4.0,11.0,27,0.00,,,0.00,0.000000,,2013-07-14 07:43:00,
2013-07-14 00:53:00,68.0,33.0,-100.00,WNW,287,4.0,11.0,27,0.00,,,0.00,0.000000,,2013-07-14 07:53:00,
2013-07-14 01:00:00,68.0,33.0,-100.00,WNW,288,4.0,9.0,27,0.00,,,0.00,0.000000,,2013-07-14 08:00:00,
2013-07-14 01:22:00,68.0,33.0,-100.00,WNW,288,4.0,9.0,27,0.00,,,0.00,0.000000,,2013-07-14 08:22:00,
2013-07-14 01:32:00,68.0,33.0,-100.00,WNW,288,4.0,9.0,27,0.00,,,0.00,0.000000,,2013-07-14 08:32:00,
2013-07-14 01:42:00,68.0,33.0,-100.00,WNW,288,4.0,9.0,27,0.00,,,0.00,0.000000,,2013-07-14 08:42:00,
2013-07-14 01:53:00,68.0,33.0,-100.00,WNW,288,4.0,9.0,27,0.00,,,0.00,0.000000,,2013-07-14 08:53:00,
2013-07-14 02:00:00,69.0,35.0,-100.00,West,276,3.0,11.0,28,0.00,,,0.00,0.000000,,2013-07-14 09:00:00,
2013-07-14 02:22:00,69.0,35.0,-100.00,West,276,3.0,11.0,28,0.00,,,0.00,0.000000,,2013-07-14 09:22:00,
2013-07-14 02:32:00,69.0,35.0,-100.00,West,276,3.0,11.0,28,0.00,,,0.00,0.000000,,2013-07-14 09:32:00,
2013-07-14 02:42:00,69.0,35.0,-100.00,West,276,3.0,11.0,28,0.00,,,0.00,0.000000,,2013-07-14 09:42:00,
2013-07-14 02:53:00,69.0,35.0,-100.00,West,276,3.0,11.0,28,0.00,,,0.00,0.000000,,2013-07-14 09:53:00,
2013-07-14 03:00:00,67.0,31.0,-100.00,WNW,300,2.0,10.0,26,0.00,,,0.00,0.000000,,2013-07-14 10:00:00,
2013-07-14 03:22:00,67.0,31.0,-100.00,WNW,300,2.0,10.0,26,0.00,,,0.00,0.000000,,2013-07-14 10:22:00,
2013-07-14 03:32:00,67.0,31.0,-100.00,WNW,300,2.0,10.0,26,0.00,,,0.00,0.000000,,2013-07-14 10:32:00,
2013-07-14 03:42:00,67.0,31.0,-100.00,WNW,300,2.0,10.0,26,0.00,,,0.00,0.000000,,2013-07-14 10:42:00,
2013-07-14 03:53:00,67.0,31.0,-100.00,WNW,300,2.0,10.0,26,0.00,,,0.00,0.000000,,2013-07-14 10:53:00,
2013-07-14 04:00:00,68.0,32.0,-100.00,NW,309,1.0,10.0,26,0.00,,,0.00,0.000000,,2013-07-14 11:00:00,
2013-07-14 04:22:00,68.0,32.0,-100.00,NW,309,1.0,10.0,26,0.00,,,0.00,0.000000,,2013-07-14 11:22:00,
2013-07-14 04:32:00,68.0,32.0,-100.00,NW,309,1.0,10.0,26,0.00,,,0.00,0.000000,,2013-07-14 11:32:00,
2013-07-14 04:43:00,68.0,32.0,-100.00,NW,309,1.0,10.0,26,0.00,,,0.00,0.000000,,2013-07-14 11:43:00,
2013-07-14 04:53:00,68.0,32.0,-100.00,NW,309,1.0,10.0,26,0.00,,,0.00,0.000000,,2013-07-14 11:53:00,
2013-07-14 05:00:00,67.0,31.0,-100.00,WNW,282,2.0,5.0,26,0.00,,,0.00,0.000000,,2013-07-14 12:00:00,
2013-07-14 05:22:00,67.0,31.0,-100.00,WNW,282,2.0,5.0,26,0.00,,,0.00,0.000000,,2013-07-14 12:22:00,
2013-07-14 05:33:00,67.0,31.0,-100.00,WNW,282,2.0,5.0,26,0.00,,,0.00,0.000000,,2013-07-14 12:33:00,
2013-07-14 05:43:00,67.0,31.0,-100.00,WNW,282,2.0,5.0,26,0.00,,,0.00,0.000000,,2013-07-14 12:43:00,
2013-07-14 05:53:00,67.0,31.0,-100.00,WNW,282,2.0,5.0,26,0.00,,,0.00,0.000000,,2013-07-14 12:53:00,
2013-07-14 06:00:00,66.0,32.0,-100.00,West,280,1.0,9.0,28,0.00,,,0.00,0.000000,,2013-07-14 13:00:00,
2013-07-14 06:32:00,66.0,32.0,-100.00,West,280,1.0,9.0,28,0.00,,,0.00,0.000000,,2013-07-14 13:32:00,
2013-07-14 06:42:00,66.0,32.0,-100.00,West,280,1.0,9.0,28,0.00,,,0.00,0.000000,,2013-07-14 13:42:00,
2013-07-14 06:53:00,66.0,32.0,-100.00,West,280,1.0,9.0,28,0.00,,,0.00,0.000000,,2013-07-14 13:53:00,
2013-07-14 07:00:00,64.0,26.0,-100.00,North,351,1.0,6.0,24,0.00,,,0.00,1.000000,,2013-07-14 14:00:00,
2013-07-14 07:23:00,64.0,26.0,-100.00,North,351,1.0,6.0,24,0.00,,,0.00,1.000000,,2013-07-14 14:23:00,
2013-07-14 07:33:00,64.0,26.0,-100.00,North,351,1.0,6.0,24,0.00,,,0.00,1.000000,,2013-07-14 14:33:00,
2013-07-14 07:43:00,64.0,26.0,-100.00,North,351,1.0,6.0,24,0.00,,,0.00,1.000000,,2013-07-14 14:43:00,
2013-07-14 07:53:00,64.0,26.0,-100.00,North,351,1.0,6.0,24,0.00,,,0.00,1.000000,,2013-07-14 14:53:00,
2013-07-14 08:00:00,71.0,28.0,-100.00,NNE,20,3.0,4.0,20,-99.99,,,0.00,65.000000,,2013-07-14 15:00:00,
2013-07-14 08:22:00,71.0,28.0,-100.00,NNE,20,3.0,4.0,20,-99.99,,,0.00,65.000000,,2013-07-14 15:22:00,
2013-07-14 08:32:00,71.0,28.0,-100.00,NNE,20,3.0,4.0,20,-99.99,,,0.00,65.000000,,2013-07-14 15:32:00,
2013-07-14 08:42:00,71.0,28.0,-100.00,NNE,20,3.0,4.0,20,-99.99,,,0.00,65.000000,,2013-07-14 15:42:00,
2013-07-14 08:53:00,71.0,28.0,-100.00,NNE,20,3.0,4.0,20,-99.99,,,0.00,65.000000,,2013-07-14 15:53:00,
2013-07-14 09:00:00,75.0,26.0,-100.00,NNE,19,3.0,7.0,16,0.00,,,0.00,318.000000,,2013-07-14 16:00:00,
2013-07-14 09:22:00,75.0,26.0,-100.00,NNE,19,3.0,7.0,16,0.00,,,0.00,318.000000,,2013-07-14 16:22:00,
2013-07-14 09:32:00,75.0,26.0,-100.00,NNE,19,3.0,7.0,16,0.00,,,0.00,318.000000,,2013-07-14 16:32:00,
2013-07-14 09:43:00,75.0,26.0,-100.00,NNE,19,3.0,7.0,16,0.00,,,0.00,318.000000,,2013-07-14 16:43:00,
2013-07-14 09:53:00,75.0,26.0,-100.00,NNE,19,3.0,7.0,16,0.00,,,0.00,318.000000,,2013-07-14 16:53:00,
2013-07-14 10:00:00,80.0,25.0,-100.00,NNE,15,4.0,8.0,13,0.00,,,0.00,511.000000,,2013-07-14 17:00:00,
2013-07-14 10:22:00,80.0,25.0,-100.00,NNE,15,4.0,8.0,13,0.00,,,0.00,511.000000,,2013-07-14 17:22:00,
2013-07-14 10:32:00,80.0,25.0,-100.00,NNE,15,4.0,8.0,13,0.00,,,0.00,511.000000,,2013-07-14 17:32:00,
2013-07-14 10:43:00,80.0,25.0,-100.00,NNE,15,4.0,8.0,13,0.00,,,0.00,511.000000,,2013-07-14 17:43:00,
2013-07-14 10:53:00,80.0,25.0,-100.00,NNE,15,4.0,8.0,13,0.00,,,0.00,511.000000,,2013-07-14 17:53:00,
2013-07-14 11:00:00,82.0,28.0,-100.00,NNE,24,5.0,9.0,14,0.00,,,0.00,757.000000,,2013-07-14 18:00:00,
2013-07-14 11:22:00,82.0,28.0,-100.00,NNE,24,5.0,9.0,14,0.00,,,0.00,757.000000,,2013-07-14 18:22:00,
2013-07-14 11:32:00,82.0,28.0,-100.00,NNE,24,5.0,9.0,14,0.00,,,0.00,757.000000,,2013-07-14 18:32:00,
2013-07-14 11:42:00,82.0,28.0,-100.00,NNE,24,5.0,9.0,14,0.00,,,0.00,757.000000,,2013-07-14 18:42:00,
2013-07-14 11:52:00,82.0,28.0,-100.00,NNE,24,5.0,9.0,14,0.00,,,0.00,757.000000,,2013-07-14 18:52:00,
2013-07-14 12:00:00,81.0,26.0,-100.00,North,11,3.0,9.0,13,0.00,,,0.00,764.000000,,2013-07-14 19:00:00,
2013-07-14 12:22:00,81.0,26.0,-100.00,North,11,3.0,9.0,13,0.00,,,0.00,764.000000,,2013-07-14 19:22:00,
2013-07-14 12:32:00,81.0,26.0,-100.00,North,11,3.0,9.0,13,0.00,,,0.00,764.000000,,2013-07-14 19:32:00,
2013-07-14 12:43:00,81.0,26.0,-100.00,North,11,3.0,9.0,13,0.00,,,0.00,764.000000,,2013-07-14 19:43:00,
2013-07-14 12:53:00,81.0,26.0,-100.00,North,11,3.0,9.0,13,0.00,,,0.00,764.000000,,2013-07-14 19:53:00,
2013-07-14 13:00:00,88.0,31.0,-100.00,NNW,342,2.0,8.0,13,0.00,,,0.00,570.000000,,2013-07-14 20:00:00,
2013-07-14 13:22:00,88.0,31.0,-100.00,NNW,342,2.0,8.0,13,0.00,,,0.00,570.000000,,2013-07-14 20:22:00,
2013-07-14 13:32:00,88.0,31.0,-100.00,NNW,342,2.0,8.0,13,0.00,,,0.00,570.000000,,2013-07-14 20:32:00,
2013-07-14 13:43:00,88.0,31.0,-100.00,NNW,342,2.0,8.0,13,0.00,,,0.00,570.000000,,2013-07-14 20:43:00,
2013-07-14 13:53:00,88.0,31.0,-100.00,NNW,342,2.0,8.0,13,0.00,,,0.00,570.000000,,2013-07-14 20:53:00,
2013-07-14 14:00:00,88.0,29.0,-100.00,NW,316,2.0,11.0,12,0.00,,,0.00,722.000000,,2013-07-14 21:00:00,
2013-07-14 14:32:00,88.0,29.0,-100.00,NW,316,2.0,11.0,12,0.00,,,0.00,722.000000,,2013-07-14 21:32:00,
2013-07-14 14:43:00,88.0,29.0,-100.00,NW,316,2.0,11.0,12,0.00,,,0.00,722.000000,,2013-07-14 21:43:00,
2013-07-14 14:52:00,88.0,29.0,-100.00,NW,316,2.0,11.0,12,0.00,,,0.00,722.000000,,2013-07-14 21:52:00,
2013-07-14 15:32:00,89.0,23.0,-100.00,West,268,4.0,10.0,9,0.00,,,0.00,440.000000,,2013-07-14 22:32:00,
2013-07-14 16:32:00,98.0,32.0,-100.00,WNW,282,6.0,13.0,10,0.00,,,0.00,1027.000000,,2013-07-14 23:32:00,
2013-07-14 17:22:00,95.0,30.0,-100.00,WNW,286,5.0,16.0,10,-99.99,,,0.00,810.000000,,2013-07-15 00:22:00,
2013-07-14 17:32:00,95.0,30.0,-100.00,WNW,286,5.0,16.0,10,-99.99,,,0.00,810.000000,,2013-07-15 00:32:00,
2013-07-14 18:32:00,93.0,31.0,-100.00,NW,318,6.0,16.0,11,-99.99,,,0.00,740.000000,,2013-07-15 01:32:00,
2013-07-14 18:43:00,93.0,31.0,-100.00,NW,318,6.0,16.0,11,-99.99,,,0.00,740.000000,,2013-07-15 01:43:00,
2013-07-14 19:22:00,88.0,31.0,-100.00,East,99,7.0,22.0,13,-99.99,,,-99.99,452.000000,,2013-07-15 02:22:00,
2013-07-14 19:32:00,88.0,31.0,-100.00,East,99,7.0,22.0,13,-99.99,,,-99.99,452.000000,,2013-07-15 02:32:00,
2013-07-14 19:42:00,88.0,31.0,-100.00,East,99,7.0,22.0,13,-99.99,,,-99.99,452.000000,,2013-07-15 02:42:00,
2013-07-14 19:53:00,88.0,31.0,-100.00,East,99,7.0,22.0,13,-99.99,,,-99.99,452.000000,,2013-07-15 02:53:00,
2013-07-14 20:00:00,79.0,29.0,-100.00,NW,311,3.0,20.0,16,0.00,,,0.00,34.000000,,2013-07-15 03:00:00,
2013-07-14 20:22:00,79.0,29.0,-100.00,NW,311,3.0,20.0,16,0.00,,,0.00,34.000000,,2013-07-15 03:22:00,
2013-07-14 20:32:00,79.0,29.0,-100.00,NW,311,3.0,20.0,16,0.00,,,0.00,34.000000,,2013-07-15 03:32:00,
2013-07-14 20:43:00,79.0,29.0,-100.00,NW,311,3.0,20.0,16,0.00,,,0.00,34.000000,,2013-07-15 03:43:00,
2013-07-14 20:53:00,79.0,29.0,-100.00,NW,311,3.0,20.0,16,0.00,,,0.00,34.000000,,2013-07-15 03:53:00,
2013-07-14 21:00:00,74.0,29.0,-100.00,WNW,289,2.0,19.0,19,0.00,,,0.00,20.000000,,2013-07-15 04:00:00,
2013-07-14 21:33:00,74.0,29.0,-100.00,WNW,289,2.0,19.0,19,0.00,,,0.00,20.000000,,2013-07-15 04:33:00,
2013-07-14 21:42:00,74.0,29.0,-100.00,WNW,289,2.0,19.0,19,0.00,,,0.00,20.000000,,2013-07-15 04:42:00,
2013-07-14 21:53:00,74.0,29.0,-100.00,WNW,289,2.0,19.0,19,0.00,,,0.00,20.000000,,2013-07-15 04:53:00,
2013-07-14 22:00:00,71.0,29.0,-100.00,West,268,5.0,13.0,21,0.00,,,0.00,1.000000,,2013-07-15 05:00:00,
2013-07-14 22:32:00,71.0,29.0,-100.00,West,268,5.0,13.0,21,0.00,,,0.00,1.000000,,2013-07-15 05:32:00,
2013-07-14 22:43:00,71.0,29.0,-100.00,West,268,5.0,13.0,21,0.00,,,0.00,1.000000,,2013-07-15 05:43:00,
2013-07-14 22:53:00,71.0,29.0,-100.00,West,268,5.0,13.0,21,0.00,,,0.00,1.000000,,2013-07-15 05:53:00,
2013-07-14 23:00:00,72.0,31.0,-100.00,WNW,287,3.0,12.0,22,0.00,,,0.00,0.000000,,2013-07-15 06:00:00,
2013-07-14 23:22:00,72.0,31.0,-100.00,WNW,287,3.0,12.0,22,0.00,,,0.00,0.000000,,2013-07-15 06:22:00,
2013-07-14 23:32:00,72.0,31.0,-100.00,WNW,287,3.0,12.0,22,0.00,,,0.00,0.000000,,2013-07-15 06:32:00,
2013-07-14 23:42:00,72.0,31.0,-100.00,WNW,287,3.0,12.0,22,0.00,,,0.00,0.000000,,2013-07-15 06:42:00,
2013-07-14 23:53:00,72.0,31.0,-100.00,WNW,287,3.0,12.0,22,0.00,,,0.00,0.000000,,2013-07-15 06:53:00,